| time (UTC) | temp F | wind direction | speed knots | gust knots | rain 1hr in | rain 24hr in | rain mn in | humidity % | barometer mb |
| 20260505003019 | 57 | 210 | 1.7 | 5.2 | 0.00 | 0.00 | 0.00 | 61 | 1010.0 |
| 20260505002019 | 58 | 221 | 1.7 | 3.5 | 0.00 | 0.00 | 0.00 | 60 | 1009.8 |
| 20260505001019 | 58 | 237 | 1.7 | 3.5 | 0.00 | 0.00 | 0.00 | 58 | 1009.6 |
| 20260505000019 | 59 | 219 | 1.7 | 4.3 | 0.00 | 0.00 | 0.00 | 56 | 1009.5 |
| 20260504235016 | 60 | 240 | 1.7 | 6.1 | 0.00 | 0.00 | 0.00 | 55 | 1009.4 |
| 20260504234017 | 60 | 269 | 1.7 | 4.3 | 0.00 | 0.00 | 0.00 | 54 | 1009.3 |
| 20260504233019 | 61 | 212 | 1.7 | 5.2 | 0.00 | 0.00 | 0.00 | 52 | 1009.2 |
| 20260504232020 | 62 | 212 | 2.6 | 4.3 | 0.00 | 0.00 | 0.00 | 51 | 1009.1 |
| 20260504231019 | 62 | 210 | 1.7 | 4.3 | 0.00 | 0.00 | 0.00 | 50 | 1009.0 |
| 20260504230018 | 63 | 214 | 2.6 | 7.0 | 0.00 | 0.00 | 0.00 | 50 | 1008.8 |
| 20260504225037 | 63 | 217 | 1.7 | 4.3 | 0.00 | 0.00 | 0.00 | 50 | 1008.7 |
| 20260504224017 | 63 | 224 | 1.7 | 5.2 | 0.00 | 0.00 | 0.00 | 49 | 1008.7 |
| 20260504223017 | 64 | 215 | 2.6 | 6.1 | 0.00 | 0.00 | 0.00 | 49 | 1008.6 |
| 20260504222017 | 66 | 213 | 3.5 | 7.8 | 0.00 | 0.00 | 0.00 | 47 | 1008.6 |
| 20260504221021 | 67 | 210 | 1.7 | 4.3 | 0.00 | 0.00 | 0.00 | 46 | 1008.5 |
| 20260504220018 | 67 | 210 | 2.6 | 6.1 | 0.00 | 0.00 | 0.00 | 45 | 1008.5 |
| 20260504215017 | 68 | 219 | 1.7 | 5.2 | 0.00 | 0.00 | 0.00 | 43 | 1008.3 |
| 20260504214059 | 68 | 211 | 1.7 | 4.3 | 0.00 | 0.00 | 0.00 | 44 | 1008.3 |
| 20260504213018 | 68 | 208 | 2.6 | 5.2 | 0.00 | 0.00 | 0.00 | 43 | 1008.4 |
| 20260504212019 | 68 | 218 | 1.7 | 4.3 | 0.00 | 0.00 | 0.00 | 42 | 1008.3 |
| 20260504211016 | 68 | 223 | 2.6 | 6.1 | 0.00 | 0.00 | 0.00 | 42 | 1008.2 |
| 20260504210019 | 69 | 221 | 2.6 | 6.1 | 0.00 | 0.00 | 0.00 | 41 | 1008.2 |
| 20260504205040 | 70 | 215 | 3.5 | 7.0 | 0.00 | 0.00 | 0.00 | 40 | 1008.2 |
| 20260504204039 | 70 | 219 | 1.7 | 5.2 | 0.00 | 0.00 | 0.00 | 40 | 1008.2 |
| 20260504203020 | 70 | 277 | 2.6 | 7.8 | 0.00 | 0.00 | 0.00 | 38 | 1008.1 |
| 20260504202017 | 70 | 234 | 1.7 | 7.8 | 0.00 | 0.00 | 0.00 | 38 | 1008.1 |
| 20260504201017 | 70 | 226 | 2.6 | 7.0 | 0.00 | 0.00 | 0.00 | 37 | 1008.1 |
| 20260504200017 | 70 | 263 | 1.7 | 5.2 | 0.00 | 0.00 | 0.00 | 37 | 1008.2 |
| 20260504195100 | 70 | 205 | 1.7 | 5.2 | 0.00 | 0.00 | 0.00 | 38 | 1008.1 |
| 20260504194017 | 69 | 225 | 2.6 | 7.0 | 0.00 | 0.00 | 0.00 | 38 | 1008.2 |
| 20260504193037 | 70 | 227 | 2.6 | 6.1 | 0.00 | 0.00 | 0.00 | 37 | 1008.2 |
| 20260504192018 | 69 | 232 | 2.6 | 7.0 | 0.00 | 0.00 | 0.00 | 37 | 1008.2 |
| 20260504191018 | 69 | 224 | 1.7 | 7.0 | 0.00 | 0.00 | 0.00 | 37 | 1008.3 |
| 20260504190019 | 69 | 211 | 2.6 | 6.1 | 0.00 | 0.00 | 0.00 | 37 | 1008.3 |
| 20260504185018 | 69 | 221 | 2.6 | 8.7 | 0.00 | 0.00 | 0.00 | 38 | 1008.3 |
| 20260504184019 | 69 | 229 | 2.6 | 6.1 | 0.00 | 0.00 | 0.00 | 37 | 1008.6 |
| 20260504183038 | 69 | 214 | 2.6 | 7.8 | 0.00 | 0.00 | 0.00 | 37 | 1008.6 |
| 20260504182019 | 69 | 213 | 2.6 | 7.0 | 0.00 | 0.00 | 0.00 | 38 | 1008.7 |
| 20260504181019 | 69 | 255 | 2.6 | 6.1 | 0.00 | 0.00 | 0.00 | 37 | 1008.8 |
| 20260504180019 | 69 | 241 | 2.6 | 7.0 | 0.00 | 0.00 | 0.00 | 37 | 1008.9 |
| 20260504175020 | 68 | 238 | 2.6 | 7.0 | 0.00 | 0.00 | 0.00 | 37 | 1009.0 |
| 20260504174036 | 68 | 265 | 3.5 | 7.8 | 0.00 | 0.00 | 0.00 | 36 | 1009.1 |
| 20260504173017 | 67 | 227 | 2.6 | 7.0 | 0.00 | 0.00 | 0.00 | 38 | 1008.9 |
| 20260504172040 | 67 | 235 | 3.5 | 7.0 | 0.00 | 0.00 | 0.00 | 37 | 1009.1 |
| 20260504171020 | 67 | 209 | 2.6 | 7.0 | 0.00 | 0.00 | 0.00 | 38 | 1009.0 |
| 20260504151019 | 64 | 228 | 2.6 | 6.1 | 0.00 | 0.00 | 0.00 | 41 | 1010.4 |
| 20260504141022 | 60 | 208 | 2.6 | 4.3 | 0.00 | 0.00 | 0.00 | 46 | 1011.0 |
| 20260504081028 | 38 | 357 | 0.0 | 0.9 | 0.00 | 0.00 | 0.00 | 80 | 1011.0 |
| 20260504050020 | 36 | 278 | 0.0 | 1.7 | 0.00 | 0.00 | 0.00 | 80 | 1011.1 |
| 20260504045016 | 36 | 233 | 0.0 | 0.9 | 0.00 | 0.00 | 0.00 | 80 | 1011.3 |
| 20260504044037 | 36 | 248 | 0.0 | 1.7 | 0.00 | 0.00 | 0.00 | 79 | 1011.2 |
| 20260504043017 | 36 | 322 | 0.0 | 1.7 | 0.00 | 0.00 | 0.00 | 79 | 1011.1 |
| 20260504042018 | 36 | 305 | 0.0 | 1.7 | 0.00 | 0.00 | 0.00 | 79 | 1011.1 |
| 20260504041021 | 36 | 235 | 0.0 | 1.7 | 0.00 | 0.00 | 0.00 | 79 | 1011.0 |
| 20260504040018 | 36 | 270 | 0.0 | 0.9 | 0.00 | 0.00 | 0.00 | 80 | 1010.9 |
| 20260504035038 | 36 | 333 | 0.9 | 1.7 | 0.00 | 0.00 | 0.00 | 80 | 1010.9 |
| 20260504034018 | 36 | 312 | 0.0 | 1.7 | 0.00 | 0.00 | 0.00 | 79 | 1010.9 |
| 20260504033018 | 36 | 340 | 0.9 | 2.6 | 0.00 | 0.00 | 0.00 | 78 | 1010.9 |
| 20260504032036 | 37 | 310 | 0.0 | 1.7 | 0.00 | 0.00 | 0.00 | 78 | 1010.8 |
| 20260504031016 | 36 | 336 | 0.9 | 1.7 | 0.00 | 0.00 | 0.00 | 79 | 1010.7 |
| 20260504030018 | 36 | 335 | 0.9 | 1.7 | 0.00 | 0.00 | 0.00 | 79 | 1010.6 |
| 20260504025018 | 36 | 271 | 0.0 | 0.9 | 0.00 | 0.00 | 0.00 | 80 | 1010.6 |
| 20260504024019 | 36 | 318 | 0.0 | 1.7 | 0.00 | 0.00 | 0.00 | 79 | 1010.5 |
| 20260504023017 | 37 | 303 | 0.0 | 1.7 | 0.00 | 0.00 | 0.00 | 78 | 1010.5 |
| 20260504022017 | 37 | 257 | 0.0 | 0.9 | 0.00 | 0.00 | 0.00 | 76 | 1010.4 |
| 20260504021018 | 38 | 340 | 0.0 | 1.7 | 0.00 | 0.00 | 0.00 | 75 | 1010.4 |
| 20260504020017 | 38 | 330 | 0.0 | 1.7 | 0.00 | 0.00 | 0.00 | 73 | 1010.4 |
| 20260504015037 | 39 | 325 | 0.0 | 1.7 | 0.00 | 0.00 | 0.00 | 72 | 1010.3 |
| 20260504014018 | 39 | 306 | 0.0 | 0.9 | 0.00 | 0.00 | 0.00 | 71 | 1010.2 |
| 20260504013018 | 40 | 336 | 0.0 | 1.7 | 0.00 | 0.00 | 0.00 | 70 | 1010.2 |
| 20260504012017 | 41 | 311 | 0.0 | 1.7 | 0.00 | 0.00 | 0.00 | 68 | 1010.1 |
| 20260504011017 | 41 | 287 | 0.0 | 0.9 | 0.00 | 0.00 | 0.00 | 64 | 1009.9 |
| 20260504010017 | 42 | 324 | 0.0 | 0.9 | 0.00 | 0.00 | 0.00 | 62 | 1009.7 |
| 20260504005018 | 43 | 324 | 0.0 | 1.7 | 0.00 | 0.00 | 0.00 | 60 | 1009.6 |
| 20260504004018 | 44 | 338 | 0.0 | 1.7 | 0.00 | 0.00 | 0.00 | 60 | 1009.5 |